User: anonymous   Login
Location: Unspecified
(0.0000°N, 0.0000°E)
Time: 19:58:05
(UTC+00:00)
Language:

ATS 3 - Orbit

View from above orbital plane
View from above orbital plane
View from above satellite
View from above satellite

Ground track
Ground track

The orbit data is extracted from the following two-line orbital elements,

1  3029U 67111A   17268.52705758 -.00000109 +00000-0 +00000-0 0  9994
2  3029 004.5491 297.4392 0013007 124.6086 027.0857 01.00271865182687
Epoch (UTC): 25 September 2017 12:38:57
Eccentricity: 0.0013007
inclination: 4.5491°
perigee height: 35731 km
apogee height: 35841 km
right ascension of ascending node: 297.4392°
argument of perigee: 124.6086°
revolutions per day: 1.00271865
mean anomaly at epoch: 27.0857°
orbit number at epoch: 18268

The dashed part of the orbit path shows where the satellite is in the earth's shadow,  

DLR